User: anonymous   Login
Location: Unspecified
(0.0000°N, 0.0000°E)
Time: 11:51:12
(UTC+00:00)
Language:

HORYU 2 - Orbit

View from above orbital plane
View from above orbital plane
View from above satellite
View from above satellite

Ground track
Ground track

The orbit data is extracted from the following two-line orbital elements,

1 38340U 12025D   22148.15102736  .00001579  00000-0  23378-3 0  9998
2 38340  98.1946 226.2429 0010074 295.2376  64.7789 14.76596335539658
Epoch (UTC): 28 May 2022 03:37:28
Eccentricity: 0.0010074
inclination: 98.1946°
perigee height: 633 km
apogee height: 647 km
right ascension of ascending node: 226.2429°
argument of perigee: 295.2376°
revolutions per day: 14.76596335
mean anomaly at epoch: 64.7789°
orbit number at epoch: 53965

The dashed part of the orbit path shows where the satellite is in the earth's shadow,  

DLR